Location: Chihuahua
(28.6330°N, 106.0830°W)
Time: 11:14:11
(UTC-07:00)

Daily predictions for brighter satellites

Satellite Brightness Start Highest point End
(mag) Time Altitude Azimuth Time Altitude Azimuth Time Altitude Azimuth
IDEFIX/ARIANE 42P 3.3 17:53:09 10° S 17:58:16 60° W 18:03:26 10° NNW
Meteor 1-11 4.3 17:54:55 10° S 18:00:34 89° E 18:06:20 10° N
Intelsat 5-1 Rocket 2.4 17:58:46 10° WSW 18:00:55 31° S 18:04:00 10° ESE
Lacrosse 5 rocket 2.2 17:59:38 10° N 18:02:56 26° NE 18:06:22 10° ESE
Cosmos 1634 Rocket 4.2 17:59:19 10° N 18:05:29 79° W 18:11:37 10° S
Cosmos 1626 2.7 18:02:02 10° SSE 18:05:30 37° E 18:08:58 10° NNE
OTV 4 0.4 18:05:19 10° WNW 18:08:16 67° NNE 18:11:12 10° ESE
MSX 4.1 18:03:38 10° S 18:09:20 77° WSW 18:15:04 10° NNW
YAOGAN 1 3.5 18:06:24 10° S 18:10:37 53° W 18:14:52 10° NNW
Cosmos 304 Rocket 4.3 18:09:23 10° SSW 18:14:08 65° WNW 18:18:55 10° N
Cosmos 773 Rocket 4.3 18:10:13 10° S 18:15:06 46° ESE 18:20:03 10° NNE
Cosmos 372 Rocket 3.9 18:10:33 10° NNW 18:15:39 74° ENE 18:20:44 10° SSE
Cosmos 1707 Rocket 4.2 18:13:23 10° NNE 18:17:19 33° E 18:21:14 10° SE
COSMO-SKYMED 1 3.0 18:14:02 10° N 18:18:20 64° WNW 18:22:36 10° SSW
Cosmos 1603 4.3 18:14:02 10° SSE 18:19:00 34° ESE 18:24:00 10° NE
CZ-4 R/B 4.1 18:16:19 10° SSW 18:19:26 23° W 18:22:35 10° NW
Cosmos 1666 Rocket 3.6 18:16:46 10° S 18:20:59 56° E 18:25:15 10° NNE
Resurs 01 Rocket 3.4 18:26:53 13° NE 18:26:53 13° NE 18:27:55 10° NE
Cosmos 1703 3.4 18:21:55 10° S 18:25:48 75° W 18:29:41 10° N
SJ-6B 3.7 18:22:53 10° SE 18:26:23 29° ENE 18:29:56 10° NNE
Cosmos 1726 3.8 18:23:29 10° NNW 18:26:59 37° W 18:30:29 10° SSW
USA 215 4.4 18:24:57 14° ENE 18:28:40 22° NE 18:33:26 10° NNW
Cosmos 1455 2.9 18:26:03 10° NNE 18:29:27 31° E 18:32:53 10° SE
Milstar 3 3.2 18:26:06 10° W 18:32:47 59° SSW 18:39:59 10° ESE
Tiangong 1 0.8 18:30:01 10° SW 18:32:58 88° SSE 18:34:31 25° NE
Cosmos 2278 Rocket 2.7 18:27:48 10° NNW 18:33:25 64° WSW 18:39:00 10° S
Cosmos 1900 4.5 18:39:48 10° NNW 18:44:38 49° ENE 18:49:30 10° SE
GPS 2-17 Rocket1 4.5 18:41:53 10° WSW 18:45:35 27° S 18:48:24 15° SE
Cosmos 1470 Rocket 3.6 18:49:45 10° SSE 18:53:58 51° E 18:56:38 21° NNE
Cosmos 1184 Rocket 4.1 18:53:42 10° SSW 18:56:54 42° W 19:00:05 10° N
SL-16 R/B 3.9 18:53:23 10° SW 18:58:18 30° WNW 19:03:14 10° N
ALOS 2.6 18:55:08 10° SE 18:59:30 42° ENE 19:03:53 10° N
Helios 1B rocket 3.4 19:02:09 29° SE 19:02:09 29° SE 19:04:52 10° SSE
CCE 1 Rocket 4.2 18:58:17 10° WSW 19:02:26 60° SSE 19:04:49 33° E
Spot 2 Rocket 3.8 18:58:29 10° SE 19:03:12 41° ENE 19:07:54 10° N
Cosmos 2242 Rocket 3.5 18:59:36 10° N 19:03:59 61° E 19:08:23 10° SSE
Cosmos 2026 Rocket 4.0 19:02:58 10° SSE 19:08:59 53° E 19:13:47 16° NNE
USA 229 DEB 4.4 19:03:57 10° SW 19:10:35 53° WNW 19:17:14 10° NNE
Cosmos 292 Rocket 3.8 19:05:51 10° SSW 19:10:36 78° WNW 19:13:48 21° N
USA 229 4.3 19:04:02 10° SW 19:10:40 54° WNW 19:17:16 11° NNE
Iridium 4 Rocket 3.2 19:07:59 10° S 19:12:40 76° W 19:16:59 10° N
Cosmos 1869 3.1 19:11:26 10° N 19:15:29 83° E 19:19:30 10° S
Genesis I 3.7 19:12:53 10° SSW 19:15:56 46° SSE 19:15:56 46° SSE
Cosmos 2297 4.3 19:11:47 10° NNW 19:17:23 59° WSW 19:22:59 10° S
NOSS 3-1 (A) 3.4 19:19:08 10° S 19:24:33 51° ESE 19:24:37 50° ESE
FENGYUN 3A 3.5 19:22:11 10° SSE 19:27:31 83° ENE 19:32:54 10° N
Star 37E S/N 40062 4.4 19:19:01 10° WSW 19:30:41 76° S 19:31:05 70° ESE
Meteor 2-20 4.3 19:24:45 10° S 19:30:49 76° E 19:33:46 33° NNE
Delta 2 Rocket 4.4 19:28:36 10° WSW 19:30:38 34° WSW 19:30:38 34° WSW
Cosmos 1680 Rocket 4.1 19:28:43 10° SSW 19:33:48 55° WNW 19:36:44 25° N
Cosmos 1943 3.0 19:31:12 10° SSW 19:36:51 80° ESE 19:37:08 77° ENE
Lacrosse 5 rocket 3.7 19:38:55 10° WNW 19:42:00 21° WSW 19:45:12 10° S
OTV 4 3.8 19:42:36 10° WSW 19:43:08 12° WSW 19:43:08 12° WSW
Resurs 01 Rocket 3.4 19:57:30 10° SSW 20:04:24 18° NW 20:05:40 10° NNW
NOSS 3-1 (C) 3.8 19:57:19 10° SW 20:02:49 53° WNW 20:03:11 52° NW
USA 215 3.5 20:12:20 61° NW 20:12:20 61° NW 20:17:36 10° NW
Centaur D-1AR AC-36 4.5 20:29:06 10° W 20:57:42 37° SW 20:58:37 36° SSW
